[[{"header":{"parameterUnit":"m.s-1","parameterCategory":1,"la1":30.2991,"la2":30.254,"lo1":-89.0895,"lo2":-89.0444,"dy":0.0017,"dx":0.0017,"nx":28,"ny":28,"refTime":"2025-09-08T09:00:00:Z","depth":0,"parameterNumber":2,"parameterNumberName":"U-component_of_WINDS"},"data":[0,0,0,0,0,0,0,0,0,0,0,0,0,0,0,0,0,0,0,0,0,0,0,0,0,0,0,0,0,0,0,0,0,0,0,0,0,0,0,0,0,0,0,0,0,0,0,0,0,0,0,0,0,0,0,0,0,0,-5.508,-5.508,0,-5.5049,-5.5048,-5.5048,-5.4904,-5.4901,-5.4897,-5.4894,-5.4863,-5.4866,-5.4868,0,0,0,0,0,0,0,0,0,0,0,0,0,-5.5021,-5.5023,-5.5081,-5.508,-5.508,-5.5049,-5.5048,-5.5048,-5.4905,-5.4901,-5.4897,-5.4893,-5.4863,-5.4865,-5.4868,0,0,0,0,0,0,0,0,0,0,0,0,0,-5.5024,-5.5024,-5.5081,-5.5005,-5.4997,-5.5049,-5.5048,-5.5048,-5.4906,-5.4901,-5.4896,-5.4891,-5.4862,-5.4865,-5.4869,-5.4991,0,0,-5.4879,-5.4881,0,0,0,0,0,0,0,0,-5.5024,-5.5027,-5.5016,-5.501,-5.5002,-5.4975,-5.5016,-5.5029,-5.4907,-5.4941,-5.4894,-5.4888,-5.4905,-5.4904,-5.4909,-5.4989,-5.4988,-5.4879,-5.4882,-5.4883,-5.4884,0,0,0,0,0,0,0,-5.5024,-5.5027,-5.5068,-5.5016,-5.5008,-5.4973,-5.4968,-5.5018,-5.4951,-5.4937,-5.4927,-5.4925,-5.49,-5.4907,-5.4908,-5.4988,-5.4879,-5.4882,-5.4885,-5.4886,-5.5168,-5.5174,0,0,0,0,0,0,-5.5034,-5.5028,-5.5069,-5.5067,-5.5001,-5.4979,-5.4973,-5.4989,-5.495,-5.494,-5.4929,-5.4918,-5.4903,-5.4904,-5.4906,-5.5047,-5.4883,-5.4886,-5.4888,-5.5163,-5.517,-5.5176,0,0,0,0,0,0,-5.5034,-5.5039,-5.507,-5.5045,-5.5046,-5.4985,-5.5004,-5.4991,-5.4997,-5.4944,-5.4932,-5.4948,-5.4899,-5.4901,-5.4971,-5.5044,-5.4888,-5.4891,-5.5157,-5.5165,-5.5173,-5.533,0,0,0,0,0,0,-5.5033,-5.504,-5.5085,-5.5047,-5.5048,-5.5135,-5.5009,-5.4994,-5.5003,-5.4989,-5.4958,-5.4949,-5.4895,-5.4967,-5.4975,-5.5046,-5.4894,-5.515,-5.516,-5.517,-5.5318,-5.5343,-5.5364,0,0,0,0,0,-5.5031,-5.513,-5.5088,-5.5093,-5.5102,-5.5139,-5.514,-5.5076,-5.501,-5.5055,-5.5022,-5.495,-5.5036,-5.4975,-5.4983,-5.5056,-5.5145,-5.5157,-5.5169,-5.5308,-5.5338,-5.5363,0,0,0,0,0,0,-5.5178,-5.5124,-5.5076,-5.5165,-5.5158,-5.5115,-5.5169,-5.511,-5.5121,-5.5107,-5.5028,-5.5023,-5.5104,-5.5087,-5.5021,-5.5174,-5.5078,-5.5093,-5.5181,-5.5209,-5.5232,-5.5233,-5.4897,0,0,0,0,0,-5.5221,-5.5255,-5.5206,-5.529,-5.5289,-5.5231,-5.5244,-5.5196,-5.5185,-5.5182,-5.5153,-5.5146,-5.5172,-5.519,-5.521,-5.5316,-5.5308,-5.5371,-5.5394,-5.5413,-5.5425,-5.5482,-5.5509,-5.5216,-5.5216,-5.5215,0,0,-5.531,-5.5284,-5.531,-5.5319,-5.5307,-5.5345,-5.5229,-5.5273,-5.5301,-5.5188,-5.5252,-5.5232,-5.5219,-5.5309,-5.5346,-5.5297,-5.5505,-5.5428,-5.5444,-5.5446,-5.5497,-5.5525,-5.555,-5.5224,-5.5222,-5.5221,0,0,-5.549,-5.5475,-5.5543,-5.5535,-5.5519,-5.5481,-5.5498,-5.5464,-5.5446,-5.551,-5.5427,-5.546,-5.5505,-5.5499,-5.5503,-5.5687,-5.5621,-5.5696,-5.5814,-5.587,-5.5893,-5.5913,-5.5978,-5.6003,-5.5709,-5.571,-5.571,0,-5.5602,-5.5655,-5.5586,-5.5637,-5.5644,-5.5545,-5.5615,-5.561,-5.5603,-5.5611,-5.5556,-5.5612,-5.5596,-5.5683,-5.5729,-5.5735,-5.5752,-5.5697,-5.5895,-5.5914,-5.5932,-5.5994,-5.6018,-5.5719,-5.5718,-5.5717,-5.5716,0,-5.5794,-5.5832,-5.589,-5.5885,-5.5899,-5.5959,-5.5901,-5.5924,-5.5876,-5.5844,-5.5911,-5.589,-5.5905,-5.5922,-5.5876,-5.6004,-5.5974,-5.5909,-5.581,-5.597,-5.6027,-5.605,-5.5732,-5.5728,-5.5726,-5.5723,0,0,-5.6061,-5.6021,-5.6043,-5.6041,-5.6019,-5.6047,-5.6105,-5.612,-5.6141,-5.6141,-5.6187,-5.623,-5.617,-5.6174,-5.6127,-5.6176,-5.6323,-5.6104,-5.6103,-5.6145,-5.6464,-5.6512,-5.654,-5.6281,-5.6286,-5.6289,-5.6465,0,-5.6233,-5.6327,-5.6269,-5.6372,-5.6407,-5.6316,-5.6366,-5.6359,-5.6332,-5.6359,-5.6329,-5.636,-5.6279,-5.6281,-5.6326,-5.6296,-5.6386,-5.6283,-5.6324,-5.6326,-5.6328,-5.657,-5.662,-5.6786,-5.6486,-5.649,-5.6493,0,-5.6444,-5.6454,-5.6561,-5.6534,-5.6547,-5.6593,-5.6603,-5.663,-5.6621,-5.6598,-5.6605,-5.6546,-5.6602,-5.6508,-5.6584,-5.6516,-5.653,-5.6518,-5.6523,-5.6522,-5.6418,-5.6575,-5.6838,-5.6863,-5.6527,-5.6524,-5.6522,0,-5.6629,-5.6669,-5.6738,-5.6739,-5.6709,-5.6744,-5.6734,-5.672,-5.6734,-5.6744,-5.6752,-5.6769,-5.6778,-5.6793,-5.6741,-5.6677,-5.6825,-5.6726,-5.6807,-5.6809,-5.684,-5.6838,-5.7108,-5.6853,-5.6852,-5.6852,-5.6851,0,-5.6825,-5.6894,-5.682,-5.6863,-5.6938,-5.6873,-5.6949,-5.6929,-5.6919,-5.6957,-5.6881,-5.6918,-5.6848,-5.688,-5.684,-5.691,-5.6915,-5.6898,-5.6886,-5.6904,-5.6906,-5.691,-5.6897,-5.6858,-5.6857,-5.6856,-5.6855,0,-5.7042,-5.6995,-5.7065,-5.7033,-5.7026,-5.7083,-5.7056,-5.7095,-5.7064,-5.7114,-5.7122,-5.7073,-5.7106,-5.7057,-5.7085,-5.7058,-5.7155,-5.7126,-5.7157,-5.7148,-5.7232,-5.7225,-5.7512,-5.7547,-5.7271,-5.7274,-5.7276,0,-5.7169,-5.722,-5.7194,-5.7214,-5.7208,-5.7242,-5.7256,-5.7195,-5.7212,-5.7209,-5.7249,-5.7276,-5.7293,-5.7351,-5.7319,-5.7341,-5.7311,-5.7411,-5.7314,-5.733,-5.7312,-5.7309,-5.7314,-5.743,-5.7433,-5.7436,-5.7438,0,-5.74,-5.7375,-5.7398,-5.7414,-5.7433,-5.7443,-5.7447,-5.7468,-5.7404,-5.7429,-5.7462,-5.7476,-5.7506,-5.7534,-5.7548,-5.7538,-5.7479,-5.747,-5.7489,-5.7507,-5.7522,-5.7514,-5.721,-5.7462,-5.746,-5.7458,-5.7457,-5.7456,-5.7574,-5.7616,-5.7605,-5.7634,-5.7631,-5.7638,-5.7673,-5.7648,-5.7674,-5.7693,-5.7656,-5.7699,-5.7692,-5.7705,-5.7703,-5.7736,-5.7692,-5.7721,-5.7728,-5.7736,-5.7749,-5.7519,-5.7739,-5.7738,-5.7737,-5.7736,-5.7736,0,-5.78,-5.779,-5.7817,-5.7826,-5.785,-5.7793,-5.7796,-5.7819,-5.7858,-5.7856,-5.7876,-5.7916,-5.7944,-5.7916,-5.7938,-5.7971,-5.7944,-5.7979,-5.7975,-5.7974,-5.7787,-5.7767,-5.8,-5.8,-5.8,-5.8,-5.8,-5.8,-5.792,-5.7988,-5.7963,-5.803,-5.8019,-5.806,-5.8067,-5.8074,-5.8072,-5.812,-5.8143,-5.8125,-5.8113,-5.8135,-5.8159,-5.815,-5.8161,-5.8206,-5.8188,-5.8013,-5.7987,-5.7962,-5.7943,-5.8209,-5.821,-5.8371,-5.8373,-5.8374]},{"header":{"parameterUnit":"m.s-1","parameterCategory":1,"la1":30.2991,"la2":30.254,"lo1":-89.0895,"lo2":-89.0444,"dy":0.0017,"dx":0.0017,"nx":28,"ny":28,"refTime":"2025-09-08T09:00:00:Z","depth":0,"parameterNumber":3,"parameterNumberName":"V-component_of_WINDS"},"data":[0,0,0,0,0,0,0,0,0,0,0,0,0,0,0,0,0,0,0,0,0,0,0,0,0,0,0,0,0,0,0,0,0,0,0,0,0,0,0,0,0,0,0,0,0,0,0,0,0,0,0,0,0,0,0,0,0,0,1.7547,1.7547,0,1.7476,1.7475,1.7474,1.7462,1.7463,1.7463,1.7464,1.7386,1.7384,1.7381,0,0,0,0,0,0,0,0,0,0,0,0,0,1.7672,1.767,1.7547,1.7547,1.7546,1.7476,1.7475,1.7474,1.7462,1.7463,1.7463,1.7464,1.7387,1.7384,1.7381,0,0,0,0,0,0,0,0,0,0,0,0,0,1.7611,1.7669,1.7548,1.7531,1.7529,1.7476,1.7475,1.7474,1.7462,1.7463,1.7464,1.7464,1.7388,1.7384,1.738,1.7337,0,0,1.7368,1.7367,0,0,0,0,0,0,0,0,1.7614,1.7606,1.7535,1.7532,1.753,1.7479,1.749,1.7428,1.7461,1.7487,1.7464,1.7465,1.7416,1.741,1.7394,1.7334,1.733,1.7368,1.7366,1.7364,1.7363,0,0,0,0,0,0,0,1.7618,1.7609,1.7519,1.7534,1.7531,1.7527,1.7519,1.7478,1.7447,1.7485,1.7484,1.7476,1.7415,1.7398,1.7392,1.7329,1.7368,1.7365,1.7362,1.7361,1.723,1.7229,0,0,0,0,0,0,1.7626,1.7613,1.7521,1.7517,1.7575,1.7524,1.7515,1.7494,1.7448,1.7441,1.7475,1.7476,1.7404,1.7397,1.739,1.7336,1.7364,1.736,1.7358,1.7231,1.723,1.7229,0,0,0,0,0,0,1.7629,1.7618,1.7524,1.7564,1.7552,1.7521,1.7497,1.7492,1.7475,1.744,1.7434,1.7464,1.7405,1.7395,1.7351,1.7333,1.7358,1.7355,1.7233,1.7231,1.723,1.7228,0,0,0,0,0,0,1.7632,1.7619,1.7602,1.7564,1.755,1.7487,1.7496,1.749,1.7469,1.7469,1.7428,1.7422,1.7405,1.7357,1.7347,1.7328,1.7352,1.7234,1.7232,1.723,1.7229,1.7226,1.7224,0,0,0,0,0,1.7637,1.7604,1.7602,1.7591,1.7529,1.7486,1.7478,1.746,1.7468,1.7451,1.7428,1.7423,1.7337,1.7352,1.7341,1.7321,1.7235,1.7233,1.723,1.7231,1.7227,1.7224,0,0,0,0,0,0,1.7639,1.7598,1.7595,1.7549,1.7522,1.7484,1.7462,1.7457,1.7425,1.7426,1.7404,1.7395,1.7352,1.7332,1.735,1.7277,1.7287,1.7282,1.7291,1.7287,1.7284,1.7289,1.7348,0,0,0,0,0,1.7634,1.7604,1.757,1.7532,1.7519,1.7493,1.7473,1.7463,1.7432,1.742,1.7394,1.7364,1.733,1.7308,1.7275,1.7228,1.7218,1.7208,1.7206,1.7204,1.7199,1.7172,1.7167,1.7221,1.7221,1.7221,0,0,1.7623,1.7598,1.7579,1.7532,1.7509,1.7477,1.7483,1.7448,1.7424,1.7414,1.737,1.7351,1.7316,1.727,1.7249,1.7253,1.7183,1.72,1.7199,1.7195,1.7169,1.7164,1.716,1.7219,1.722,1.722,0,0,1.7587,1.7565,1.7532,1.751,1.7476,1.7459,1.7451,1.7415,1.7402,1.7359,1.7351,1.7322,1.7264,1.724,1.722,1.7178,1.7172,1.7168,1.7153,1.7127,1.7123,1.7119,1.7103,1.7098,1.7164,1.7164,1.7164,0,1.7577,1.753,1.7515,1.7481,1.7461,1.7453,1.7418,1.7397,1.7353,1.7339,1.7345,1.7273,1.7249,1.7197,1.7188,1.7172,1.7162,1.7171,1.7125,1.7121,1.7117,1.7102,1.7096,1.7164,1.7164,1.7164,1.7164,0,1.752,1.7487,1.7464,1.7424,1.7401,1.7367,1.7347,1.7325,1.7317,1.73,1.7257,1.7228,1.7189,1.7177,1.7168,1.7125,1.7128,1.713,1.7139,1.7112,1.7097,1.7091,1.7163,1.7163,1.7163,1.7163,0,0,1.7479,1.7434,1.7425,1.7407,1.7371,1.7345,1.7311,1.7275,1.7257,1.7228,1.7199,1.7152,1.7154,1.7131,1.712,1.7098,1.7066,1.7103,1.7102,1.7096,1.7016,1.7013,1.7007,1.7064,1.7062,1.7062,1.7018,0,1.7437,1.7378,1.7364,1.7313,1.7282,1.7276,1.7247,1.7221,1.7205,1.7176,1.7158,1.7125,1.7131,1.7117,1.7096,1.7075,1.705,1.7078,1.7034,1.7033,1.7041,1.6999,1.6995,1.6956,1.7013,1.7012,1.7011,0,1.738,1.7352,1.7297,1.7266,1.7253,1.7227,1.7193,1.7167,1.7138,1.7128,1.7104,1.7096,1.706,1.7074,1.7024,1.7043,1.7025,1.7013,1.7011,1.7004,1.7018,1.6989,1.6943,1.6936,1.7002,1.7002,1.7003,0,1.7354,1.7303,1.7264,1.7249,1.7212,1.7194,1.7177,1.715,1.7129,1.71,1.7087,1.7054,1.7035,1.7009,1.6992,1.7004,1.6944,1.6955,1.6933,1.6933,1.6918,1.6919,1.6866,1.691,1.691,1.6911,1.6911,0,1.7307,1.7274,1.7252,1.7227,1.719,1.7176,1.7139,1.7123,1.7099,1.7071,1.7064,1.7038,1.7018,1.6989,1.6976,1.6936,1.6928,1.6918,1.6914,1.6917,1.6918,1.6903,1.6904,1.6909,1.6909,1.691,1.691,0,1.727,1.7255,1.7212,1.7182,1.7173,1.7147,1.7121,1.7097,1.7083,1.7047,1.7038,1.7015,1.698,1.6962,1.6918,1.691,1.6865,1.6864,1.6875,1.6873,1.6851,1.6853,1.6785,1.6775,1.6828,1.6827,1.6827,0,1.724,1.7215,1.7183,1.7165,1.7149,1.7119,1.7099,1.7085,1.7064,1.7031,1.7011,1.6977,1.6948,1.6894,1.6872,1.6839,1.6836,1.6815,1.6831,1.6835,1.6834,1.6835,1.6832,1.6811,1.6811,1.681,1.681,0,1.7189,1.7183,1.7155,1.7124,1.7101,1.7076,1.7052,1.7037,1.7019,1.6996,1.6962,1.694,1.6898,1.6863,1.6829,1.6812,1.6807,1.6806,1.6799,1.68,1.6807,1.6801,1.6865,1.6806,1.6807,1.6807,1.6807,1.6807,1.7153,1.713,1.7105,1.7074,1.7055,1.7033,1.7009,1.6993,1.6965,1.6929,1.6923,1.6887,1.686,1.6814,1.6796,1.6767,1.6771,1.6761,1.6758,1.6755,1.6753,1.6814,1.6761,1.6761,1.6761,1.6761,1.6761,0,1.7099,1.7083,1.7056,1.7022,1.6999,1.7,1.6973,1.6953,1.6921,1.6898,1.6871,1.6832,1.68,1.6777,1.6744,1.6725,1.6722,1.6717,1.6717,1.6713,1.6752,1.6761,1.672,1.672,1.672,1.672,1.672,1.672,1.7068,1.703,1.7021,1.6974,1.6958,1.6924,1.6908,1.6888,1.6869,1.6826,1.68,1.6787,1.6763,1.6729,1.6699,1.6693,1.6681,1.6675,1.6669,1.6705,1.671,1.6714,1.6722,1.6673,1.6673,1.6631,1.6631,1.663]}]]